Total_Precipitation_Accumulation
0.00 0.00 0.00 0.00 0.00 0.00 0.00 0.00 0.00 0.02 0.04 0.05 0.09 0.11 0.17 0.23 0.40 1.09 1.73 3.06 2.49 1.62 1.10 1.15 1.28 0.67 0.30 0.10 0.03 0.01 0.00 0.01 0.00 0.01 0.01 0.01 0.01 0.00 0.01 0.01 0.02 0.02 0.03 0.04 0.04 0.11 0.12 0.08 0.03
0.00 0.00 0.00 0.00 0.00 0.00 0.00 0.00 0.02 0.06 0.15 0.24 0.22 0.26 0.34 0.61 0.46 0.56 1.10 1.45 1.14 1.08 0.70 1.40 1.48 1.14 0.79 0.44 0.16 0.05 0.01 0.01 0.00 0.00 0.04 0.04 0.05 0.07 0.04 0.03 0.02 0.05 0.08 0.09 0.06 0.12 0.13 0.05 0.01
0.00 0.00 0.00 0.00 0.00 0.00 0.00 0.00 0.01 0.06 0.11 0.15 0.16 0.16 0.27 0.75 1.03 0.76 0.89 1.05 1.36 1.09 0.52 0.92 1.33 1.39 1.02 0.61 0.36 0.17 0.07 0.03 0.01 0.01 0.03 0.01 0.08 0.08 0.16 0.15 0.03 0.05 0.17 0.26 0.21 0.27 0.15 0.02 0.00
0.00 0.00 0.00 0.00 0.00 0.00 0.00 0.03 0.04 0.07 0.12 0.12 0.13 0.24 0.42 0.77 1.04 0.58 0.61 1.17 1.70 1.42 0.98 0.91 1.46 1.78 2.22 1.42 0.76 0.42 0.20 0.05 0.05 0.05 0.02 0.17 0.21 0.30 0.51 0.45 0.23 0.24 0.29 0.43 0.42 0.39 0.12 0.03 0.00
0.00 0.00 0.00 0.00 0.00 0.01 0.00 0.03 0.18 0.34 0.41 0.36 0.17 0.12 0.49 0.68 0.82 1.28 1.56 1.95 2.26 2.25 2.01 1.35 2.11 2.88 4.08 4.60 3.34 2.23 1.26 0.75 0.50 0.50 0.63 0.48 0.43 0.83 0.71 0.47 0.47 0.43 0.38 0.38 0.55 0.46 0.13 0.06 0.02
0.00 0.00 0.00 0.00 0.00 0.00 0.01 0.05 0.16 0.39 0.41 0.23 0.10 0.16 0.86 0.70 0.58 1.23 2.02 2.88 3.53 3.15 2.80 2.71 2.25 2.70 3.63 5.96 6.17 5.52 5.61 3.44 1.61 1.20 1.15 1.16 1.05 0.83 0.53 0.44 0.62 0.40 0.33 0.43 0.31 0.15 0.08 0.07 0.09
0.00 0.00 0.00 0.00 0.00 0.01 0.02 0.15 0.35 0.21 0.08 0.14 0.26 0.53 0.90 0.76 0.74 1.18 2.01 2.76 3.71 5.65 5.53 4.88 3.86 2.99 2.28 2.99 4.30 4.65 4.21 4.54 3.91 2.76 1.81 2.37 1.85 1.28 0.66 0.49 0.63 0.82 0.75 0.57 0.19 0.20 0.23 0.15 0.18
0.00 0.00 0.00 0.00 0.00 0.04 0.09 0.16 0.18 0.08 0.19 0.62 0.28 0.51 1.25 1.25 0.88 1.32 2.83 3.13 4.64 8.06 7.51 5.82 4.85 3.14 1.53 1.90 2.19 2.56 3.88 2.85 2.42 3.25 2.85 2.21 1.64 1.26 1.03 0.89 0.92 0.94 0.86 1.04 1.24 1.04 0.92 0.59 0.40
0.00 0.00 0.00 0.00 0.02 0.13 0.21 0.32 0.22 0.08 0.04 0.30 0.54 0.94 1.18 0.82 0.62 1.06 2.01 3.09 3.79 6.02 6.49 6.29 4.35 3.00 1.52 1.00 1.11 1.12 2.29 2.92 2.49 1.38 2.24 2.27 1.65 1.42 1.38 1.24 1.33 1.62 1.48 1.36 0.91 0.69 0.50 0.43 0.42
0.00 0.00 0.00 0.00 0.01 0.12 0.16 0.03 0.15 0.24 0.16 0.39 0.91 1.20 0.77 0.45 0.61 0.83 0.95 1.52 2.19 3.37 3.57 5.25 4.49 3.10 2.20 1.65 1.18 0.78 1.13 2.06 2.72 1.75 1.18 1.51 1.48 1.23 1.28 1.41 1.36 1.37 1.41 1.13 0.86 0.73 0.56 0.54 0.39
0.00 0.00 0.00 0.00 0.01 0.11 0.03 0.01 0.03 0.08 0.25 0.76 1.55 1.68 0.86 0.56 0.65 0.91 0.82 0.68 0.74 1.24 1.56 2.39 3.63 4.15 3.15 1.92 1.38 0.74 0.86 1.59 2.65 2.40 1.11 1.09 1.26 1.16 0.87 0.79 1.11 1.13 1.46 1.16 1.13 0.80 0.60 0.51 0.40
0.00 0.00 0.00 0.00 0.00 0.02 0.05 0.07 0.06 0.31 0.75 0.42 0.36 0.51 0.68 0.79 0.61 0.65 0.78 0.34 0.37 0.71 0.94 1.85 2.26 2.27 2.58 2.72 1.61 0.83 0.55 1.16 1.90 2.40 1.10 1.05 0.88 1.03 0.61 0.37 0.51 0.75 0.88 1.08 1.53 1.44 1.04 0.96 0.69
0.00 0.00 0.00 0.01 0.01 0.01 0.01 0.06 0.11 0.25 0.10 0.07 0.18 0.29 0.52 0.58 0.45 0.23 0.26 0.24 0.41 0.46 0.69 1.30 1.15 0.91 1.07 1.85 2.46 1.41 0.97 1.13 1.66 2.26 1.11 0.73 0.61 0.73 0.46 0.28 0.34 0.39 0.45 0.68 0.92 1.20 1.20 1.23 1.17
0.00 0.00 0.00 0.02 0.00 0.00 0.00 0.23 0.18 0.54 0.16 0.08 0.05 0.18 0.41 0.34 0.38 0.37 0.32 0.14 0.21 0.38 0.57 0.92 0.74 0.81 0.80 1.09 1.75 2.00 1.40 1.45 1.78 1.84 1.17 0.92 0.75 0.70 0.57 0.38 0.36 0.35 0.39 0.55 0.80 1.16 1.27 1.34 1.52
0.00 0.00 0.00 0.00 0.01 0.01 0.04 0.22 0.14 0.13 0.10 0.06 0.02 0.06 0.16 0.09 0.30 0.27 0.09 0.14 0.22 0.41 0.62 1.01 1.26 0.62 0.82 0.94 1.19 1.68 1.46 1.26 1.60 1.94 1.70 1.17 1.00 0.66 0.71 0.69 0.63 0.51 0.47 0.56 0.84 1.12 1.26 1.05 1.00
0.00 0.00 0.00 0.00 0.01 0.02 0.11 0.51 0.05 0.05 0.03 0.03 0.02 0.03 0.03 0.09 0.10 0.03 0.04 0.09 0.17 0.37 0.45 0.95 1.52 0.94 0.85 0.85 1.02 1.30 1.34 1.22 1.06 1.27 1.57 1.42 1.27 1.11 0.93 0.70 0.77 0.89 0.77 0.68 0.82 1.06 1.61 1.49 1.09
0.00 0.00 0.00 0.00 0.00 0.01 0.05 0.35 0.22 0.07 0.08 0.05 0.01 0.00 0.00 0.00 0.01 0.03 0.04 0.04 0.08 0.22 0.33 0.72 1.02 1.17 1.13 0.91 0.93 0.87 0.86 1.09 0.77 0.89 0.94 1.18 1.67 1.72 1.33 1.24 1.33 1.27 1.29 1.36 1.60 1.80 1.93 1.54 1.22
0.00 0.00 0.00 0.02 0.07 0.00 0.00 0.03 0.16 0.19 0.07 0.04 0.01 0.00 0.00 0.00 0.00 0.03 0.08 0.04 0.04 0.17 0.43 0.85 0.92 1.07 1.07 0.77 0.64 0.61 0.71 0.78 0.83 0.76 0.77 0.97 1.08 1.05 1.14 1.36 1.60 1.59 1.46 1.19 0.99 1.09 1.24 1.23 1.08
0.00 0.00 0.00 0.00 0.00 0.00 0.00 0.00 0.02 0.14 0.04 0.02 0.03 0.01 0.01 0.00 0.01 0.04 0.07 0.08 0.06 0.12 0.37 0.48 0.71 0.88 0.60 0.38 0.33 0.37 0.42 0.50 0.83 0.84 0.55 0.77 0.98 0.94 0.84 1.13 1.97 2.14 1.36 0.90 0.94 1.21 1.21 1.09 0.96
0.00 0.00 0.00 0.00 0.00 0.00 0.00 0.00 0.00 0.02 0.00 0.00 0.00 0.00 0.00 0.00 0.00 0.01 0.03 0.05 0.08 0.16 0.38 0.47 0.32 0.27 0.28 0.28 0.16 0.12 0.17 0.29 0.63 0.95 0.69 0.72 0.81 0.76 0.88 0.69 0.82 1.40 1.71 1.55 1.09 1.08 1.34 1.24 1.18
0.00 0.00 0.00 0.00 0.00 0.00 0.00 0.00 0.00 0.00 0.02 0.07 0.01 0.00 0.00 0.00 0.02 0.02 0.04 0.04 0.06 0.08 0.12 0.24 0.13 0.07 0.07 0.10 0.13 0.11 0.16 0.32 1.03 1.33 1.00 0.74 0.78 0.75 0.79 0.74 0.67 0.81 1.47 1.55 1.17 0.82 0.95 1.34 1.29
0.00 0.00 0.00 0.00 0.00 0.00 0.00 0.01 0.02 0.01 0.02 0.06 0.01 0.01 0.00 0.00 0.00 0.00 0.00 0.00 0.03 0.03 0.05 0.23 0.13 0.06 0.05 0.05 0.05 0.07 0.11 0.16 0.50 1.03 0.94 0.74 1.02 0.95 0.80 0.92 0.96 0.83 0.81 1.15 1.14 0.92 0.84 1.33 1.21
0.01 0.00 0.00 0.00 0.00 0.05 0.02 0.01 0.03 0.02 0.00 0.02 0.01 0.00 0.00 0.00 0.01 0.01 0.01 0.00 0.00 0.06 0.08 0.20 0.16 0.16 0.08 0.11 0.15 0.26 0.20 0.14 0.23 0.89 1.22 0.98 0.99 1.17 1.18 1.13 1.25 1.22 1.29 0.96 1.45 1.37 1.26 1.39 1.07
0.00 0.02 0.04 0.03 0.04 0.07 0.01 0.02 0.04 0.03 0.02 0.06 0.08 0.05 0.02 0.02 0.03 0.04 0.02 0.02 0.02 0.02 0.11 0.19 0.15 0.21 0.23 0.27 0.22 0.22 0.29 0.18 0.19 0.51 1.07 1.37 1.23 1.24 1.22 1.20 1.18 1.06 1.10 1.25 1.45 1.81 1.77 1.79 1.56
0.01 0.12 0.26 0.27 0.11 0.05 0.03 0.04 0.06 0.07 0.18 0.31 0.31 0.26 0.14 0.11 0.10 0.09 0.06 0.06 0.07 0.05 0.17 0.19 0.16 0.20 0.23 0.30 0.16 0.19 0.32 0.39 0.42 0.44 0.81 1.32 1.64 1.46 0.97 1.05 1.04 0.95 0.78 0.88 1.19 1.61 1.80 2.14 2.22
0.05 0.18 0.28 0.37 0.16 0.07 0.04 0.04 0.05 0.13 0.20 0.37 0.61 0.47 0.38 0.24 0.11 0.16 0.16 0.18 0.21 0.20 0.22 0.34 0.30 0.37 0.28 0.19 0.25 0.31 0.38 0.46 0.57 0.49 0.71 1.24 1.18 1.02 0.79 0.96 1.09 1.06 1.07 1.06 0.97 1.13 1.15 1.25 1.64
0.23 0.18 0.09 0.41 0.34 0.30 0.10 0.04 0.12 0.23 0.33 0.30 0.43 0.43 0.38 0.32 0.20 0.19 0.21 0.24 0.28 0.30 0.29 0.33 0.30 0.49 0.48 0.43 0.47 0.41 0.34 0.34 0.39 0.45 0.44 0.68 0.89 1.05 0.98 1.10 1.13 1.16 1.09 1.07 1.07 1.00 1.03 1.08 1.12
0.24 0.23 0.52 0.90 0.74 0.39 0.21 0.31 0.99 0.99 0.67 0.95 0.83 0.49 0.36 0.31 0.30 0.27 0.27 0.31 0.32 0.34 0.35 0.49 0.34 0.29 0.45 0.60 0.58 0.39 0.45 0.57 0.46 0.45 0.48 0.62 0.94 1.09 1.25 1.32 1.25 1.27 1.31 1.31 1.29 1.20 1.13 1.23 1.12
0.26 0.46 0.79 0.81 0.40 0.42 0.62 1.41 1.44 1.74 1.12 0.85 0.47 0.37 0.40 0.31 0.37 0.53 0.61 0.51 0.57 0.56 0.54 0.64 0.72 0.79 0.79 0.72 0.58 0.54 0.69 1.02 0.95 0.85 0.77 0.79 1.11 1.38 1.32 1.39 1.60 1.52 1.65 1.65 1.63 1.48 1.33 1.32 1.28
0.20 0.34 0.68 1.03 0.64 0.42 0.60 1.46 1.34 1.22 1.12 0.57 0.10 0.03 0.08 0.24 0.27 0.41 0.95 1.10 1.05 1.05 1.18 1.01 0.92 1.01 1.09 0.96 0.89 1.22 1.47 1.56 1.45 1.46 1.58 1.32 1.12 1.09 1.04 1.21 1.30 1.25 1.46 1.66 1.65 1.54 1.40 1.39 1.55